DECAYED
Showing default

FLOCK 4Q 6, 58315 (Decayed)

Orbit data source: Space-Track

FLOCK 4Q 6, 58315 was a payload satellite owned by Planet (US) in LEO that was launched on Sat, 11 Nov 2023 UTC via an FALCON 9 launch vehicle from the Air Force Western Test Range (AFWTR). Payload-class satellites include a variety of spacecraft equipped with specific instruments for various scientific and technological missions. These include communications satellites like Starlink; space stations such as the ISS; scientific satellites like the Hubble; Earth observation satellites from companies like Planet Labs, Umbra, and HawkEye 360; GPS; miniature CubeSats for education and research; and military/defense satellites.

Not visible in the next 10 days
Identifier
58315, 2023-174BM
Orbit
Decayed
Country
Flag of USUS
Related business
Manufacturer
Planet
Mission
Decayed Commercial Imaging
Bus & Motor
CUBESAT 3U, Unknown motor
Mass
5.7 kg wet, 5.7 kg dry
Launch date (UTC)
2023-11-11 (3 years ago)
Launch vehicle
FALCON 9
Launch site
Air Force Western Test Range (AFWTR)
Object type
Payload
Rocket body
Debris
Shape & HBR
Box + 2 Pan, 1.0 m
Radar Cross Section
0.072 m², Medium (>0.1 m² and < 1m²)

Expand to show TLE details & history
Last TLE update: 6 months ago

TLE from 6 months ago
0 FLOCK 4Q 6
1 58315U 23174BM  25330.96795571  .16443944  25417-5  40753-3 0  9992
2 58315  97.3566  57.9648 0012881 276.8838  83.0998 16.45004695114868
Epoch: 2025-11-26T23:13Z
TLE epoch observation values (Epoch: 2025-11-26T23:13:51.373Z)
Latitude
-0.00008°
Longitude
3.36914°
Altitude
154.782 km
Speed
7.814 km/s
True Right ascension
03h 51m 51s
True Declination
0° 00' 00"
Sunlit
Object was in full shadow at epoch
Visualization orbit readout
Latitude
Unknown
Longitude
Unknown
Altitude
Unknown
Speed
Unknown
Apparent Right ascension
Unknown
Apparent Declination
Unknown
Sunlit
N/A
Visualization observer readout
Local Sidereal Time
12:04:57
Azimuth
Unknown
Elevation
Unknown
Doppler factor
Unknown
Orbital elements
Apogee altitude
157.73 km
Perigee altitude
140.914 km
Semi-major axis
6,527.459 km
Eccentricity
0.00129
Inclination
97.3566°
RAAN
57.9648°
Arg. of periapsis
276.8838°
True anomaly
83.24636°
Mean anomaly
83.0998°
Eccentric anomaly
83.17308°
Mean motion
4.11554 °/min
Orbital period
87.47 mins
BSTAR
0.00040753
Loading maneuver chart data...
Computing Atmospheric mass density...
Loading historical data...
Loading historical data...
Loading historical data...
Loading historical data...
Loading historical data...
Loading historical data...
Loading historical data...

Documentation

Showing up to 5 results
|